• In Uzbekistan
  • List of Countries
  • For 7 days
  • Water Temperature
  • Satellite Maps
  • Weather Map
  • Weather Widgets
  • user-avatar
    Login

    Hourly Weather Algiers

    Today, 14 December, Thursday

    Time Temperature Precipitation Wind Pressure Humidity
    00:00 +9°C° 0 mm 5 mps 756 mmHg 64%
    01:00 +8°C° 0 mm 5 mps 755 mmHg 63%
    02:00 +8°C° 0 mm 5 mps 755 mmHg 62%
    03:00 +8°C° 0 mm 5 mps 755 mmHg 61%
    04:00 +8°C° 0 mm 5 mps 755 mmHg 60%
    05:00 +8°C° 0 mm 4 mps 754 mmHg 59%
    06:00 +8°C° 0 mm 5 mps 754 mmHg 60%
    07:00 +9°C° 0 mm 5 mps 754 mmHg 57%
    08:00 +10°C° 0 mm 5 mps 754 mmHg 54%
    09:00 +13°C° 0 mm 5 mps 754 mmHg 51%
    10:00 +15°C° 0 mm 4 mps 753 mmHg 45%
    11:00 +17°C° 0 mm 4 mps 753 mmHg 40%
    12:00 +19°C° 0 mm 4 mps 753 mmHg 34%
    13:00 +19°C° 0 mm 4 mps 752 mmHg 35%
    14:00 +19°C° 0 mm 4 mps 752 mmHg 36%
    15:00 +19°C° 0 mm 4 mps 752 mmHg 37%
    16:00 +18°C° 0 mm 4 mps 751 mmHg 41%
    17:00 +15°C° 0 mm 4 mps 751 mmHg 46%
    18:00 +13°C° 0 mm 4 mps 751 mmHg 51%
    19:00 +13°C° 0 mm 4 mps 751 mmHg 50%
    20:00 +13°C° 0 mm 4 mps 751 mmHg 50%
    21:00 +13°C° 0 mm 4 mps 751 mmHg 49%
    22:00 +12°C° 0 mm 4 mps 751 mmHg 51%
    23:00 +12°C° 0 mm 4 mps 750 mmHg 52%

    Tomorrow, 15 December, Friday

    Time Temperature Precipitation Wind Pressure Humidity
    00:00 +12°C° 0 mm 5 mps 750 mmHg 53%
    01:00 +12°C° 0 mm 5 mps 750 mmHg 54%
    02:00 +10°C° 0 mm 5 mps 749 mmHg 55%
    03:00 +10°C° 0 mm 5 mps 749 mmHg 56%
    04:00 +10°C° 0 mm 5 mps 749 mmHg 56%
    05:00 +10°C° 0 mm 5 mps 748 mmHg 56%
    06:00 +10°C° 0 mm 6 mps 748 mmHg 56%
    07:00 +11°C° 0 mm 6 mps 748 mmHg 54%
    08:00 +13°C° 0 mm 6 mps 748 mmHg 51%
    09:00 +15°C° 0 mm 6 mps 748 mmHg 49%
    10:00 +16°C° 0 mm 6 mps 748 mmHg 48%
    11:00 +17°C° 0 mm 7 mps 747 mmHg 47%
    12:00 +20°C° 0 mm 7 mps 747 mmHg 46%
    13:00 +20°C° 0 mm 7 mps 746 mmHg 48%
    14:00 +18°C° 0 mm 7 mps 746 mmHg 50%
    15:00 +18°C° 0 mm 7 mps 745 mmHg 53%
    16:00 +17°C° 0.1 mm 6 mps 745 mmHg 58%
    17:00 +15°C° 0.1 mm 6 mps 745 mmHg 64%
    18:00 +13°C° 0.1 mm 6 mps 745 mmHg 70%
    19:00 +13°C° 0.1 mm 5 mps 745 mmHg 72%
    20:00 +13°C° 0.1 mm 5 mps 746 mmHg 74%
    21:00 +13°C° 0.1 mm 4 mps 746 mmHg 76%
    22:00 +13°C° 0.7 mm 4 mps 746 mmHg 75%
    23:00 +13°C° 0.7 mm 5 mps 746 mmHg 75%

    Day after tomorrow, 16 December, Saturday

    Time Temperature Precipitation Wind Pressure Humidity
    00:00 +13°C° 0.7 mm 5 mps 746 mmHg 75%
    01:00 +12°C° 2.5 mm 4 mps 746 mmHg 81%
    02:00 +12°C° 2.5 mm 4 mps 746 mmHg 88%
    03:00 +11°C° 2.5 mm 4 mps 746 mmHg 95%
    04:00 +11°C° 0.4 mm 3 mps 746 mmHg 94%
    05:00 +12°C° 0.4 mm 2 mps 746 mmHg 94%
    06:00 +12°C° 0.4 mm 2 mps 747 mmHg 94%
    07:00 +12°C° 0.2 mm 2 mps 747 mmHg 90%
    08:00 +12°C° 0.2 mm 2 mps 748 mmHg 87%
    09:00 +11°C° 0.2 mm 3 mps 749 mmHg 83%
    10:00 +12°C° 0.1 mm 3 mps 749 mmHg 76%
    11:00 +13°C° 0.1 mm 4 mps 749 mmHg 69%
    12:00 +14°C° 0.1 mm 4 mps 750 mmHg 62%
    13:00 +13°C° 0.1 mm 5 mps 750 mmHg 62%
    14:00 +13°C° 0.1 mm 5 mps 750 mmHg 62%
    15:00 +13°C° 0.1 mm 5 mps 750 mmHg 62%
    16:00 +12°C° 0.2 mm 5 mps 750 mmHg 67%
    17:00 +11°C° 0.2 mm 4 mps 751 mmHg 72%
    18:00 +10°C° 0.2 mm 3 mps 752 mmHg 76%
    19:00 +10°C° 0.2 mm 3 mps 752 mmHg 78%
    20:00 +9°C° 0.2 mm 3 mps 753 mmHg 79%
    21:00 +9°C° 0.2 mm 2 mps 753 mmHg 81%
    22:00 +9°C° 0.2 mm 2 mps 753 mmHg 81%
    23:00 +9°C° 0.2 mm 2 mps 753 mmHg 82%

    17 December, Sunday

    Time Temperature Precipitation Wind Pressure Humidity
    00:00 +8°C° 0.2 mm 2 mps 753 mmHg 83%
    01:00 +8°C° 0.2 mm 2 mps 753 mmHg 83%
    02:00 +8°C° 0.2 mm 3 mps 753 mmHg 84%
    03:00 +8°C° 0.2 mm 3 mps 753 mmHg 84%
    04:00 +8°C° 0.2 mm 3 mps 754 mmHg 84%
    05:00 +8°C° 0.2 mm 2 mps 754 mmHg 85%
    06:00 +7°C° 0.2 mm 2 mps 754 mmHg 85%
    07:00 +8°C° 0.2 mm 2 mps 755 mmHg 82%
    08:00 +9°C° 0.2 mm 2 mps 755 mmHg 78%
    09:00 +10°C° 0.2 mm 2 mps 756 mmHg 75%
    10:00 +11°C° 0.3 mm 3 mps 756 mmHg 70%
    11:00 +12°C° 0.3 mm 3 mps 756 mmHg 65%
    12:00 +13°C° 0.3 mm 4 mps 756 mmHg 61%
    13:00 +12°C° 0.5 mm 5 mps 756 mmHg 65%
    14:00 +11°C° 0.5 mm 6 mps 756 mmHg 69%
    15:00 +10°C° 0.5 mm 7 mps 756 mmHg 73%
    16:00 +10°C° 0.3 mm 7 mps 756 mmHg 77%
    17:00 +9°C° 0.3 mm 7 mps 757 mmHg 81%
    18:00 +8°C° 0.3 mm 7 mps 758 mmHg 85%
    19:00 +8°C° 0.1 mm 7 mps 758 mmHg 85%
    20:00 +8°C° 0.1 mm 6 mps 759 mmHg 84%
    21:00 +7°C° 0.1 mm 6 mps 760 mmHg 84%
    22:00 +7°C° 0 mm 5 mps 760 mmHg 84%
    23:00 +6°C° 0 mm 5 mps 760 mmHg 84%

    18 December, Monday

    Time Temperature Precipitation Wind Pressure Humidity
    00:00 +6°C° 0 mm 4 mps 760 mmHg 84%
    01:00 +6°C° 0.1 mm 4 mps 760 mmHg 84%
    02:00 +6°C° 0.1 mm 4 mps 760 mmHg 83%
    03:00 +5°C° 0.1 mm 3 mps 760 mmHg 83%
    04:00 +5°C° 0.2 mm 3 mps 760 mmHg 82%
    05:00 +5°C° 0.2 mm 3 mps 761 mmHg 81%
    06:00 +5°C° 0.2 mm 3 mps 761 mmHg 81%
    07:00 +7°C° 0.2 mm 3 mps 761 mmHg 78%
    08:00 +8°C° 0.2 mm 3 mps 762 mmHg 75%
    09:00 +9°C° 0.2 mm 3 mps 762 mmHg 73%
    10:00 +10°C° 0.1 mm 4 mps 762 mmHg 68%
    11:00 +11°C° 0.1 mm 4 mps 761 mmHg 64%
    12:00 +11°C° 0.1 mm 4 mps 761 mmHg 60%
    13:00 +11°C° 0 mm 4 mps 761 mmHg 59%
    14:00 +11°C° 0 mm 3 mps 760 mmHg 59%
    15:00 +11°C° 0 mm 3 mps 760 mmHg 58%
    16:00 +10°C° 0 mm 2 mps 760 mmHg 63%
    17:00 +10°C° 0 mm 1 mps 760 mmHg 68%
    18:00 +9°C° 0 mm 1 mps 760 mmHg 73%
    19:00 +9°C° 0 mm 1 mps 760 mmHg 74%
    20:00 +8°C° 0 mm 1 mps 761 mmHg 76%
    21:00 +8°C° 0 mm 1 mps 761 mmHg 77%
    22:00 +7°C° 0 mm 2 mps 761 mmHg 77%
    23:00 +7°C° 0 mm 2 mps 760 mmHg 77%

    19 December, Tuesday

    Time Temperature Precipitation Wind Pressure Humidity
    00:00 +7°C° 0 mm 2 mps 760 mmHg 77%
    01:00 +7°C° 0 mm 2 mps 760 mmHg 77%
    02:00 +7°C° 0 mm 3 mps 760 mmHg 76%
    03:00 +5°C° 0 mm 3 mps 759 mmHg 76%
    04:00 +5°C° 0 mm 3 mps 759 mmHg 76%
    05:00 +5°C° 0 mm 3 mps 759 mmHg 76%
    06:00 +5°C° 0 mm 3 mps 759 mmHg 76%
    07:00 +8°C° 0 mm 3 mps 760 mmHg 73%
    08:00 +9°C° 0 mm 3 mps 760 mmHg 71%
    09:00 +10°C° 0 mm 3 mps 760 mmHg 68%
    10:00 +10°C° 0.1 mm 4 mps 760 mmHg 66%
    11:00 +11°C° 0.1 mm 4 mps 759 mmHg 65%
    12:00 +12°C° 0.1 mm 4 mps 759 mmHg 63%
    13:00 +12°C° 0.3 mm 5 mps 759 mmHg 68%
    14:00 +10°C° 0.3 mm 5 mps 759 mmHg 73%
    15:00 +10°C° 0.3 mm 5 mps 758 mmHg 78%
    16:00 +10°C° 0.2 mm 5 mps 759 mmHg 81%
    17:00 +10°C° 0.2 mm 5 mps 759 mmHg 84%
    18:00 +9°C° 0.2 mm 5 mps 759 mmHg 87%
    19:00 +10°C° 0.3 mm 5 mps 759 mmHg 87%
    20:00 +10°C° 0.3 mm 5 mps 760 mmHg 88%
    21:00 +10°C° 0.3 mm 5 mps 760 mmHg 88%
    22:00 +10°C° 0.2 mm 5 mps 760 mmHg 88%
    23:00 +10°C° 0.2 mm 5 mps 760 mmHg 88%
    Show more